Flag for Germany Weather past 2 weeks in Bottrop, North Rhine-Westphalia, Germany

Now
52 °F

Clear.


Feels Like: 49 °F
Forecast: 41 / 63 °F
Wind: 7 mph from North

Location: Duesseldorf

Current Time: Apr 19, 2015 at 11:30:49 PM

Latest Report: Apr 19, 2015 at 10:50 PM


Visibility: 10 mi

Pressure: 30.21 "Hg

Humidity: 50%

Dew point: 34 °F

Location of BottropLocation

Historic Weather in Bottrop — Graph

°F

Bottrop temperature yesterday

Maximum temperature yesterday: 57 °F (at 2:20 PM)
Minimum temperature yesterday: 36 °F (at 4:50 AM)
Average temperature yesterday: 47 °F

Past Weeks' High & Low Weather Summary

 TemperatureHumidityPressure
High75 °F (Apr 15, 3:20 PM)100% (Apr 7, 6:50 AM)30.66 "Hg (Apr 7, 6:50 AM)
Low28 °F (Apr 7, 6:50 AM)25% (Apr 12, 4:50 PM)29.92 "Hg (Apr 15, 6:50 PM)
Average50 °F65%30.26 "Hg
* Reported Apr 4 10:20 PM — Apr 19 10:20 PM, Bottrop, Weather by CustomWeather, © 2015

Note: Actual official high and low records may vary slightly from our data, if they occured in-between our weather recording intervals... More about our weather records

Advertising

Bottrop weather history for previous 24 hours

 ConditionsComfort  
Time TempWeatherWind HumidityBarometerVisibility
10:20 PM
Sun, Apr 19
52 °FClear.7 mph54%30.21 "Hg10 mi
9:50 PM52 °FClear.8 mph54%30.21 "Hg10 mi
9:20 PM55 °FSunny.9 mph47%30.18 "Hg10 mi
8:50 PM57 °FSunny.8 mph41%30.18 "Hg10 mi
8:20 PM57 °FSunny.9 mph41%30.18 "Hg10 mi
7:50 PM59 °FSunny.10 mph36%30.18 "Hg10 mi
7:20 PM59 °FSunny.10 mph39%30.15 "Hg10 mi
6:50 PM61 °FSunny.9 mph36%30.15 "Hg10 mi
6:20 PM61 °FSunny.12 mph39%30.15 "Hg10 mi
5:50 PM61 °FSunny.9 mph39%30.15 "Hg10 mi
5:20 PM61 °FPassing clouds.7 mph36%30.15 "HgN/A
4:50 PM61 °FSunny.3 mph39%30.15 "Hg10 mi
4:20 PM61 °FSunny.3 mph42%30.15 "Hg10 mi
3:50 PM61 °FSunny.8 mph42%30.15 "Hg10 mi
3:20 PM61 °FPassing clouds.5 mph36%30.15 "HgN/A
2:50 PM59 °FPassing clouds.6 mph42%30.15 "HgN/A
2:20 PM59 °FPassing clouds.6 mph42%30.15 "HgN/A
1:50 PM57 °FPartly sunny.5 mph44%30.18 "HgN/A
1:20 PM57 °FPartly sunny.2 mph48%30.18 "HgN/A
12:50 PM55 °FPartly sunny.1 mph47%30.18 "HgN/A
12:20 PM54 °FPartly sunny.1 mph54%30.18 "HgN/A
11:50 AM52 °FPartly sunny.2 mph62%30.18 "HgN/A
11:20 AM50 °FSunny.3 mph71%30.18 "Hg10 mi
10:50 AM48 °FSunny.2 mph71%30.18 "Hg10 mi
10:20 AM46 °FSunny.2 mph76%30.18 "Hg10 mi
9:50 AM45 °FSunny.5 mph81%30.18 "Hg10 mi
9:20 AM43 °FSunny.6 mph87%30.18 "Hg10 mi
8:50 AM43 °FSunny.5 mph81%30.18 "Hg10 mi
8:20 AM41 °FSunny.3 mph87%30.18 "Hg10 mi
7:50 AM39 °FSunny.3 mph93%30.18 "Hg10 mi
7:20 AM37 °FClear.3 mph93%30.18 "Hg10 mi
6:50 AM36 °FClear.7 mph93%30.18 "Hg10 mi
6:20 AM36 °FClear.5 mph93%30.18 "Hg10 mi
5:50 AM36 °FFog.2 mph87%30.18 "HgN/A
5:20 AM36 °FFog.3 mph93%30.21 "HgN/A
4:50 AM36 °FClear.5 mph93%30.21 "Hg10 mi
4:20 AM37 °FClear.5 mph87%30.21 "Hg10 mi
3:50 AM37 °FClear.3 mph87%30.21 "Hg10 mi
3:20 AM39 °FClear.5 mph81%30.21 "Hg10 mi
2:50 AM39 °FClear.6 mph81%30.24 "Hg10 mi
2:20 AM37 °FClear.6 mph81%30.24 "Hg10 mi
1:50 AM39 °FClear.5 mph75%30.24 "Hg10 mi
1:20 AM39 °FClear.2 mph75%30.24 "Hg10 mi
12:50 AM41 °FClear.3 mph70%30.27 "Hg10 mi
12:20 AM41 °FClear.5 mph70%30.27 "Hg10 mi
11:50 PM
Sat, Apr 18
41 °FClear.6 mph76%30.27 "Hg10 mi
11:20 PM43 °FClear.2 mph66%30.27 "Hg10 mi
Weather by CustomWeather, © 2015

See weather overviewHow to use our weather pages